Location: Marsån
(66.4167°N, 22.2833°E)
Time: 12:02:01
(UTC+00:00)

Meteor 2-3 Rocket - Pass Details

Date: 24 February 2024
Orbit: 841 x 885 km, 81.2° (Epoch: 15 April)

Event Time Altitude Azimuth Distance (km) Brightness Sun altitude
Rises 16:24:59 0° 165° (SSE) 3,479 6.8 -6.8°
Reaches altitude 10° 16:27:34 10° 157° (SSE) 2,540 6.0 -7.0°
Maximum altitude 16:32:50 38° 92° (E) 1,312 4.2 -7.5°
Drops below altitude 10° 16:38:05 10° 26° (NNE) 2,529 5.9 -8.1°
Sets 16:40:40 0° 19° (NNE) 3,463 6.6 -8.3°
